• Em Portugal
  • Lista de países
  • Para 7 dias
  • Temperatura da água
  • Mapas de satélite
  • Mapa do tempo
  • Widgets de tempo
  • user-avatar
    Iniciar Sessão

    Previsão horária em Baryczka

    Hoje, 12 Novembro, Segunda-feira

    Tempo Temperatura Precipitação Vento Pressão Humidade
    00:00 +7°C° 0 mm 2 m/s 745 mmHg 73%
    01:00 +8°C° 0 mm 1 m/s 745 mmHg 79%
    02:00 +7°C° 0 mm 2 m/s 745 mmHg 79%
    03:00 +6°C° 0 mm 2 m/s 746 mmHg 80%
    04:00 +6°C° 0 mm 2 m/s 746 mmHg 80%
    05:00 +6°C° 0 mm 2 m/s 746 mmHg 80%
    06:00 +6°C° 0 mm 2 m/s 746 mmHg 80%
    07:00 +6°C° 0 mm 2 m/s 747 mmHg 80%
    08:00 +8°C° 0 mm 2 m/s 747 mmHg 74%
    09:00 +10°C° 0 mm 3 m/s 747 mmHg 68%
    10:00 +11°C° 0 mm 3 m/s 747 mmHg 63%
    11:00 +12°C° 0 mm 3 m/s 747 mmHg 61%
    12:00 +13°C° 0 mm 4 m/s 747 mmHg 59%
    13:00 +14°C° 0 mm 4 m/s 747 mmHg 58%
    14:00 +13°C° 0 mm 4 m/s 747 mmHg 63%
    15:00 +12°C° 0 mm 3 m/s 747 mmHg 67%
    16:00 +11°C° 0 mm 3 m/s 747 mmHg 71%
    17:00 +11°C° 0 mm 4 m/s 747 mmHg 73%
    18:00 +10°C° 0 mm 4 m/s 747 mmHg 74%
    19:00 +10°C° 0 mm 4 m/s 747 mmHg 75%
    20:00 +10°C° 0 mm 4 m/s 748 mmHg 76%
    21:00 +9°C° 0 mm 3 m/s 748 mmHg 76%
    22:00 +9°C° 0 mm 3 m/s 748 mmHg 77%
    23:00 +9°C° 0 mm 3 m/s 748 mmHg 78%

    Amanhã, 13 Novembro, Terça-feira

    Tempo Temperatura Precipitação Vento Pressão Humidade
    00:00 +9°C° 0 mm 3 m/s 748 mmHg 78%
    01:00 +9°C° 0 mm 3 m/s 748 mmHg 78%
    02:00 +9°C° 0 mm 3 m/s 748 mmHg 79%
    03:00 +8°C° 0 mm 3 m/s 748 mmHg 79%
    04:00 +8°C° 0 mm 3 m/s 748 mmHg 80%
    05:00 +8°C° 0 mm 3 m/s 748 mmHg 80%
    06:00 +8°C° 0 mm 3 m/s 748 mmHg 80%
    07:00 +8°C° 0 mm 3 m/s 748 mmHg 80%
    08:00 +8°C° 0 mm 4 m/s 748 mmHg 74%
    09:00 +11°C° 0 mm 4 m/s 747 mmHg 67%
    10:00 +13°C° 0 mm 4 m/s 747 mmHg 61%
    11:00 +13°C° 0 mm 4 m/s 747 mmHg 58%
    12:00 +14°C° 0 mm 4 m/s 747 mmHg 55%
    13:00 +15°C° 0 mm 4 m/s 747 mmHg 52%
    14:00 +14°C° 0 mm 4 m/s 746 mmHg 55%
    15:00 +12°C° 0 mm 4 m/s 746 mmHg 58%
    16:00 +11°C° 0 mm 3 m/s 746 mmHg 61%
    17:00 +11°C° 0 mm 3 m/s 746 mmHg 62%
    18:00 +11°C° 0 mm 3 m/s 746 mmHg 63%
    19:00 +10°C° 0 mm 3 m/s 746 mmHg 64%
    20:00 +11°C° 0 mm 3 m/s 746 mmHg 66%
    21:00 +11°C° 0 mm 3 m/s 746 mmHg 68%
    22:00 +11°C° 0 mm 3 m/s 747 mmHg 70%
    23:00 +11°C° 0.8 mm 4 m/s 747 mmHg 75%

    Depois de amanhã, 14 Novembro, Quarta-feira

    Tempo Temperatura Precipitação Vento Pressão Humidade
    00:00 +10°C° 0.8 mm 4 m/s 747 mmHg 81%
    01:00 +10°C° 0.8 mm 4 m/s 747 mmHg 86%
    02:00 +10°C° 0.1 mm 4 m/s 747 mmHg 86%
    03:00 +8°C° 0.1 mm 4 m/s 747 mmHg 86%
    04:00 +8°C° 0.1 mm 4 m/s 747 mmHg 86%
    05:00 +7°C° 0 mm 4 m/s 748 mmHg 87%
    06:00 +7°C° 0 mm 4 m/s 748 mmHg 89%
    07:00 +6°C° 0 mm 4 m/s 748 mmHg 91%
    08:00 +7°C° 0 mm 4 m/s 748 mmHg 86%
    09:00 +7°C° 0 mm 5 m/s 748 mmHg 82%
    10:00 +8°C° 0 mm 5 m/s 748 mmHg 78%
    11:00 +8°C° 0.1 mm 5 m/s 748 mmHg 78%
    12:00 +8°C° 0.1 mm 5 m/s 748 mmHg 78%
    13:00 +7°C° 0.1 mm 5 m/s 748 mmHg 78%
    14:00 +7°C° 0.1 mm 5 m/s 748 mmHg 79%
    15:00 +7°C° 0.1 mm 4 m/s 748 mmHg 80%
    16:00 +7°C° 0.1 mm 4 m/s 749 mmHg 81%
    17:00 +7°C° 0 mm 4 m/s 749 mmHg 83%
    18:00 +6°C° 0 mm 4 m/s 749 mmHg 86%
    19:00 +7°C° 0 mm 3 m/s 749 mmHg 88%
    20:00 +7°C° 0.1 mm 3 m/s 749 mmHg 88%
    21:00 +7°C° 0.1 mm 3 m/s 749 mmHg 88%
    22:00 +7°C° 0.1 mm 3 m/s 749 mmHg 88%
    23:00 +7°C° 0 mm 3 m/s 749 mmHg 89%

    15 Novembro, Quinta-feira

    Tempo Temperatura Precipitação Vento Pressão Humidade
    00:00 +7°C° 0 mm 3 m/s 750 mmHg 90%
    01:00 +5°C° 0 mm 3 m/s 750 mmHg 91%
    02:00 +5°C° 0 mm 3 m/s 750 mmHg 92%
    03:00 +5°C° 0 mm 3 m/s 750 mmHg 93%
    04:00 +5°C° 0 mm 3 m/s 750 mmHg 94%
    05:00 +5°C° 0 mm 3 m/s 750 mmHg 94%
    06:00 +5°C° 0 mm 3 m/s 750 mmHg 94%
    07:00 +4°C° 0 mm 3 m/s 750 mmHg 95%
    08:00 +5°C° 0 mm 3 m/s 750 mmHg 93%
    09:00 +5°C° 0 mm 3 m/s 750 mmHg 91%
    10:00 +5°C° 0 mm 3 m/s 751 mmHg 89%
    11:00 +7°C° 0.1 mm 3 m/s 751 mmHg 87%
    12:00 +7°C° 0.1 mm 3 m/s 750 mmHg 85%
    13:00 +7°C° 0.1 mm 3 m/s 750 mmHg 84%
    14:00 +7°C° 0.1 mm 3 m/s 751 mmHg 84%
    15:00 +7°C° 0.1 mm 2 m/s 751 mmHg 84%
    16:00 +7°C° 0.1 mm 2 m/s 751 mmHg 84%
    17:00 +7°C° 0.1 mm 2 m/s 751 mmHg 84%
    18:00 +5°C° 0.1 mm 3 m/s 751 mmHg 85%
    19:00 +5°C° 0.1 mm 3 m/s 751 mmHg 85%
    20:00 +5°C° 0 mm 3 m/s 752 mmHg 86%
    21:00 +5°C° 0 mm 2 m/s 752 mmHg 88%
    22:00 +5°C° 0 mm 2 m/s 752 mmHg 89%
    23:00 +5°C° 0 mm 2 m/s 752 mmHg 90%

    16 Novembro, Sexta-feira

    Tempo Temperatura Precipitação Vento Pressão Humidade
    00:00 +5°C° 0 mm 2 m/s 752 mmHg 92%
    01:00 +5°C° 0 mm 2 m/s 752 mmHg 93%
    02:00 +5°C° 0 mm 2 m/s 753 mmHg 92%
    03:00 +4°C° 0 mm 3 m/s 753 mmHg 92%
    04:00 +4°C° 0 mm 3 m/s 753 mmHg 91%
    05:00 +3°C° 0 mm 3 m/s 753 mmHg 91%
    06:00 +3°C° 0 mm 3 m/s 753 mmHg 91%
    07:00 +3°C° 0 mm 3 m/s 754 mmHg 91%
    08:00 +3°C° 0 mm 3 m/s 754 mmHg 87%
    09:00 +4°C° 0 mm 3 m/s 754 mmHg 82%
    10:00 +4°C° 0 mm 4 m/s 755 mmHg 78%
    11:00 +5°C° 0 mm 4 m/s 755 mmHg 75%
    12:00 +5°C° 0 mm 4 m/s 754 mmHg 73%
    13:00 +5°C° 0 mm 4 m/s 754 mmHg 70%
    14:00 +5°C° 0 mm 3 m/s 755 mmHg 73%
    15:00 +4°C° 0 mm 3 m/s 755 mmHg 76%
    16:00 +3°C° 0 mm 3 m/s 755 mmHg 79%
    17:00 +2°C° 0 mm 3 m/s 755 mmHg 81%
    18:00 +2°C° 0 mm 3 m/s 755 mmHg 83%
    19:00 +1°C° 0 mm 3 m/s 756 mmHg 85%
    20:00 +1°C° 0 mm 3 m/s 756 mmHg 85%
    21:00 +1°C° 0 mm 2 m/s 756 mmHg 86%
    22:00 +1°C° 0 mm 2 m/s 756 mmHg 87%
    23:00 -1°C° 0 mm 2 m/s 756 mmHg 88%

    17 Novembro, Sábado

    Tempo Temperatura Precipitação Vento Pressão Humidade
    00:00 -1°C° 0 mm 2 m/s 756 mmHg 89%
    01:00 -1°C° 0 mm 2 m/s 756 mmHg 90%
    02:00 -2°C° 0 mm 2 m/s 756 mmHg 90%
    03:00 -2°C° 0 mm 2 m/s 756 mmHg 89%
    04:00 -2°C° 0 mm 2 m/s 756 mmHg 88%
    05:00 -2°C° 0 mm 2 m/s 756 mmHg 87%
    06:00 -3°C° 0 mm 2 m/s 756 mmHg 86%
    07:00 -3°C° 0 mm 2 m/s 756 mmHg 84%
    08:00 -1°C° 0 mm 2 m/s 757 mmHg 75%
    09:00 0°C° 0 mm 3 m/s 757 mmHg 67%
    10:00 +1°C° 0 mm 3 m/s 757 mmHg 58%
    11:00 +2°C° 0 mm 3 m/s 756 mmHg 54%
    12:00 +2°C° 0 mm 3 m/s 756 mmHg 49%
    13:00 +3°C° 0 mm 3 m/s 756 mmHg 45%
    14:00 +2°C° 0 mm 3 m/s 756 mmHg 50%
    15:00 +1°C° 0 mm 3 m/s 756 mmHg 55%
    16:00 +1°C° 0 mm 2 m/s 756 mmHg 59%
    17:00 -1°C° 0 mm 2 m/s 756 mmHg 61%
    18:00 -1°C° 0 mm 2 m/s 756 mmHg 62%
    19:00 -2°C° 0 mm 2 m/s 756 mmHg 64%
    20:00 -2°C° 0 mm 2 m/s 756 mmHg 63%
    21:00 0°C° 0 mm 1 m/s 756 mmHg 63%
    22:00 0°C° 0 mm 1 m/s 756 mmHg 62%
    23:00 0°C° 0 mm 1 m/s 755 mmHg 62%
    Mostrar mais